DW2762 Weather Reports


Display with metric or nautical units.
time (UTC)temp
F
wind
direction
speed
MPH
gust
MPH
rain 1hr
in
rain 24hr
in
rain mn
in
humidity
%
barometer
mb
20190116153306 39 215 4.0 6.0 0.00 0.00 0.00 74 1012.6
20190116150307 40 225 5.0 9.0 0.00 0.00 0.00 71 1012.7
20190116143306 38 229 9.0 22.0 0.00 0.00 0.00 79 1012.6
20190116140306 41 303 4.0 11.0 0.00 0.00 0.00 70 1013.0
20190116133306 41 244 6.0 10.0 0.00 0.00 0.00 71 1013.2
20190116130307 42 224 5.0 15.0 0.00 0.00 0.00 70 1013.2
20190116123306 42 310 2.0 10.0 0.00 0.00 0.00 72 1013.5
20190116120306 41 253 5.0 14.0 0.00 0.00 0.00 73 1013.4
20190116113306 41 218 10.0 21.0 0.00 0.00 0.00 73 1013.2
20190116110306 40 298 14.0 27.0 0.00 0.00 0.00 76 1013.2
20190116103306 40 261 11.0 20.0 0.00 0.00 0.00 79 1013.7
20190116100306 39 288 12.0 25.0 0.00 0.00 0.00 81 1014.3
20190116093306 39 286 10.0 22.0 0.00 0.00 0.00 82 1014.6
20190116090306 38 313 11.0 17.0 0.00 0.00 0.00 84 1014.8
20190116083307 38 289 9.0 13.0 0.00 0.00 0.00 85 1014.9
20190116080306 37 302 6.0 12.0 0.00 0.00 0.00 86 1014.8
20190116073306 37 229 6.0 13.0 0.00 0.00 0.00 84 1014.8
20190116070306 38 325 13.0 17.0 0.00 0.00 0.00 83 1014.4
20190116063306 38 263 8.0 17.0 0.00 0.01 0.00 84 1014.1
20190116060306 37 244 3.0 12.0 0.00 0.01 0.00 85 1014.0
20190116053306 37 235 3.0 10.0 0.00 0.02 0.00 87 1013.7
20190116050306 37 200 5.0 11.0 0.00 0.02 0.00 86 1013.5
20190116043306 38 223 6.0 12.0 0.00 0.02 0.00 84 1013.2
20190116040306 38 251 4.0 11.0 0.00 0.02 0.00 83 1012.9
20190116033306 38 269 3.0 14.0 0.00 0.02 0.00 82 1012.9
20190116030306 38 298 9.0 18.0 0.00 0.02 0.00 82 1012.6
20190116023306 38 313 12.0 18.0 0.00 0.02 0.00 82 1012.8
20190116020306 38 225 7.0 13.0 0.00 0.02 0.00 80 1013.0
20190116013306 38 268 4.0 9.0 0.00 0.02 0.00 80 1012.9
20190116010306 38 259 4.0 12.0 0.00 0.02 0.00 80 1012.8
20190116003306 38 257 6.0 17.0 0.00 0.02 0.00 81 1012.6
20190116000306 38 218 5.0 15.0 0.00 0.02 0.00 82 1012.7
20190115233306 38 269 10.0 16.0 0.00 0.02 0.00 82 1012.7
20190115230306 38 246 12.0 20.0 0.00 0.02 0.00 79 1012.6
20190115223306 38 197 8.0 19.0 0.00 0.02 0.02 79 1012.7
20190115220306 38 269 11.0 18.0 0.00 0.02 0.02 79 1012.9
20190115213306 38 273 6.0 21.0 0.00 0.02 0.02 79 1012.8
20190115210306 37 261 7.0 17.0 0.00 0.02 0.02 80 1012.9
20190115203306 37 225 11.0 17.0 0.00 0.02 0.02 81 1013.2
20190115200306 36 291 7.0 13.0 0.00 0.02 0.02 82 1013.0
20190115193306 36 262 6.0 16.0 0.00 0.02 0.02 84 1012.9
20190115190306 35 283 12.0 25.0 0.00 0.02 0.02 85 1012.7
20190115183306 35 242 10.0 18.0 0.00 0.02 0.02 86 1013.2
20190115180306 35 225 5.0 17.0 0.00 0.02 0.02 85 1013.4
20190115173306 35 220 7.0 14.0 0.00 0.02 0.02 85 1013.5
20190115170306 35 259 9.0 18.0 0.00 0.02 0.02 84 1013.6
20190115163306 35 217 6.0 12.0 0.00 0.02 0.02 83 1013.5
20190115160310 35 249 14.0 23.0 0.00 0.02 0.02 80 1013.4